Location: NJAA Observatory
(40.6819°N, 74.8979°W)
Time: 18:17:11
(UTC-04:00)

Cosmos 2237 Rocket - Visible Passes

Search period start: 28 August 2015 00:00
Search period end: 07 September 2015 00:00
Orbit: 836 x 849 km, 71.0° (Epoch: 27 August)

Date Brightness Start Highest point End Pass type
(mag) Time Alt. Az. Time Alt. Az. Time Alt. Az.
28 Aug 2.7 03:51:39 40° SSE 03:53:08 51° ESE 03:58:36 10° NNE visible
28 Aug 3.5 05:33:30 12° WSW 05:37:34 24° NW 05:42:01 10° N visible
29 Aug 2.7 03:37:37 46° SE 03:38:21 49° ESE 03:43:46 10° NE visible
29 Aug 3.4 05:19:28 16° W 05:22:44 25° NW 05:27:16 10° N visible
30 Aug 2.8 03:23:32 46° ESE 03:23:33 46° ESE 03:28:56 10° NE visible
30 Aug 3.4 05:05:23 19° W 05:07:53 26° NW 05:12:31 10° N visible
31 Aug 3.1 03:09:24 42° E 03:09:24 42° E 03:14:06 10° NE visible
31 Aug 3.3 04:51:15 23° W 04:53:03 27° NW 04:57:46 10° N visible
01 Sep 3.4 02:55:14 37° ENE 02:55:14 37° ENE 02:59:15 10° NE visible
01 Sep 3.2 04:37:05 27° WNW 04:38:13 28° NW 04:43:00 10° N visible
02 Sep 3.7 02:41:02 31° ENE 02:41:02 31° ENE 02:44:25 10° NE visible
02 Sep 3.2 04:22:52 29° WNW 04:23:23 30° NW 04:28:15 10° N visible
03 Sep 4.0 02:26:46 26° ENE 02:26:46 26° ENE 02:29:34 10° NE visible
03 Sep 3.2 04:08:37 31° NW 04:08:37 31° NW 04:13:28 10° N visible
04 Sep 4.2 02:12:30 22° NE 02:12:30 22° NE 02:14:43 10° NE visible
04 Sep 3.3 03:54:20 31° NW 03:54:20 31° NW 03:58:42 10° N visible
05 Sep 4.5 01:58:11 18° NE 01:58:11 18° NE 01:59:51 10° NE visible
05 Sep 3.4 03:40:02 31° NNW 03:40:02 31° NNW 03:43:56 10° N visible
06 Sep 4.7 01:43:51 15° NE 01:43:51 15° NE 01:45:00 10° NE visible
06 Sep 3.6 03:25:41 29° NNW 03:25:41 29° NNW 03:29:10 10° N visible
